When you browse on this site, cookies collect data to enhance your experience and personalize the content and advertising you see.
Visit our Privacy Policy to learn more. By continuing to use the site, you agree to this use of cookies and data.
  • In Hungary
  • List of Countries
  • For 7 days
  • Water Temperature
  • Weather Map
  • News
  • Weather Widgets
  • user-avatar
    Login

    Hourly Weather Juliopol

    Today, 22 September, Sunday

    Time Temperature Precipitation Wind Pressure Humidity
    00:00 +11°C° 0 mm 1 mps 758 mmHg 90%
    01:00 +11°C° 0 mm 1 mps 758 mmHg 91%
    02:00 +11°C° 0 mm 1 mps 758 mmHg 91%
    03:00 +10°C° 0 mm 1 mps 758 mmHg 91%
    04:00 +10°C° 0 mm 1 mps 758 mmHg 91%
    05:00 +11°C° 0 mm 1 mps 758 mmHg 88%
    06:00 +12°C° 0 mm 1 mps 758 mmHg 85%
    07:00 +12°C° 0 mm 1 mps 758 mmHg 82%
    08:00 +14°C° 0 mm 2 mps 757 mmHg 74%
    09:00 +16°C° 0 mm 2 mps 757 mmHg 66%
    10:00 +18°C° 0 mm 2 mps 757 mmHg 58%
    11:00 +20°C° 0 mm 2 mps 757 mmHg 54%
    12:00 +21°C° 0 mm 2 mps 756 mmHg 49%
    13:00 +23°C° 0 mm 2 mps 756 mmHg 45%
    14:00 +23°C° 0 mm 2 mps 756 mmHg 46%
    15:00 +23°C° 0 mm 2 mps 755 mmHg 47%
    16:00 +23°C° 0 mm 1 mps 755 mmHg 48%
    17:00 +21°C° 0 mm 1 mps 755 mmHg 53%
    18:00 +17°C° 0 mm 0 mps 755 mmHg 57%
    19:00 +15°C° 0 mm 0 mps 755 mmHg 61%
    20:00 +14°C° 0 mm 0 mps 755 mmHg 63%
    21:00 +14°C° 0 mm 0 mps 755 mmHg 64%
    22:00 +13°C° 0 mm 0 mps 755 mmHg 66%
    23:00 +13°C° 0 mm 0 mps 755 mmHg 67%

    Tomorrow, 23 September, Monday

    Time Temperature Precipitation Wind Pressure Humidity
    00:00 +14°C° 0 mm 1 mps 755 mmHg 69%
    01:00 +13°C° 0 mm 1 mps 755 mmHg 70%
    02:00 +13°C° 0 mm 1 mps 755 mmHg 74%
    03:00 +12°C° 0 mm 2 mps 755 mmHg 78%
    04:00 +12°C° 0 mm 2 mps 755 mmHg 81%
    05:00 +12°C° 0 mm 2 mps 755 mmHg 81%
    06:00 +12°C° 0 mm 3 mps 755 mmHg 82%
    07:00 +12°C° 0 mm 3 mps 755 mmHg 82%
    08:00 +14°C° 0 mm 3 mps 755 mmHg 76%
    09:00 +15°C° 0 mm 4 mps 755 mmHg 69%
    10:00 +18°C° 0 mm 4 mps 755 mmHg 63%
    11:00 +19°C° 0 mm 4 mps 755 mmHg 60%
    12:00 +20°C° 0 mm 4 mps 755 mmHg 58%
    13:00 +21°C° 0 mm 4 mps 755 mmHg 55%
    14:00 +20°C° 0 mm 4 mps 755 mmHg 57%
    15:00 +20°C° 0 mm 4 mps 754 mmHg 58%
    16:00 +20°C° 0 mm 4 mps 754 mmHg 59%
    17:00 +18°C° 0 mm 4 mps 755 mmHg 65%
    18:00 +15°C° 0 mm 4 mps 755 mmHg 71%
    19:00 +13°C° 0 mm 4 mps 755 mmHg 77%
    20:00 +13°C° 0 mm 4 mps 755 mmHg 79%
    21:00 +12°C° 0 mm 4 mps 755 mmHg 80%
    22:00 +11°C° 0 mm 4 mps 755 mmHg 82%
    23:00 +11°C° 0 mm 3 mps 755 mmHg 85%

    Day after tomorrow, 24 September, Tuesday

    Time Temperature Precipitation Wind Pressure Humidity
    00:00 +10°C° 0 mm 3 mps 755 mmHg 88%
    01:00 +10°C° 0 mm 3 mps 755 mmHg 91%
    02:00 +9°C° 0 mm 3 mps 755 mmHg 92%
    03:00 +9°C° 0 mm 3 mps 755 mmHg 93%
    04:00 +9°C° 0 mm 3 mps 754 mmHg 94%
    05:00 +10°C° 0 mm 3 mps 754 mmHg 92%
    06:00 +10°C° 0 mm 3 mps 754 mmHg 90%
    07:00 +11°C° 0 mm 3 mps 754 mmHg 87%
    08:00 +13°C° 0 mm 3 mps 754 mmHg 79%
    09:00 +16°C° 0 mm 3 mps 754 mmHg 71%
    10:00 +18°C° 0 mm 4 mps 754 mmHg 63%
    11:00 +20°C° 0 mm 4 mps 753 mmHg 59%
    12:00 +21°C° 0 mm 4 mps 753 mmHg 55%
    13:00 +22°C° 0 mm 4 mps 752 mmHg 51%
    14:00 +22°C° 0 mm 3 mps 752 mmHg 52%
    15:00 +22°C° 0 mm 3 mps 751 mmHg 52%
    16:00 +22°C° 0 mm 3 mps 751 mmHg 53%
    17:00 +20°C° 0 mm 3 mps 751 mmHg 58%
    18:00 +19°C° 0 mm 3 mps 751 mmHg 62%
    19:00 +17°C° 0 mm 3 mps 751 mmHg 67%
    20:00 +17°C° 0 mm 3 mps 751 mmHg 68%
    21:00 +16°C° 0 mm 3 mps 751 mmHg 70%
    22:00 +16°C° 0 mm 3 mps 751 mmHg 71%
    23:00 +16°C° 0 mm 2 mps 750 mmHg 72%

    25 September, Wednesday

    Time Temperature Precipitation Wind Pressure Humidity
    00:00 +16°C° 0 mm 2 mps 750 mmHg 73%
    01:00 +16°C° 0 mm 2 mps 749 mmHg 73%
    02:00 +16°C° 0.2 mm 2 mps 749 mmHg 77%
    03:00 +15°C° 0.2 mm 2 mps 749 mmHg 80%
    04:00 +15°C° 0.2 mm 1 mps 749 mmHg 83%
    05:00 +15°C° 0.1 mm 1 mps 748 mmHg 85%
    06:00 +15°C° 0.1 mm 1 mps 748 mmHg 87%
    07:00 +15°C° 0.1 mm 1 mps 748 mmHg 89%
    08:00 +16°C° 0.2 mm 1 mps 748 mmHg 85%
    09:00 +17°C° 0.2 mm 2 mps 748 mmHg 81%
    10:00 +18°C° 0.2 mm 2 mps 748 mmHg 78%
    11:00 +19°C° 0.5 mm 3 mps 748 mmHg 72%
    12:00 +20°C° 0.5 mm 3 mps 748 mmHg 67%
    13:00 +20°C° 0.5 mm 4 mps 748 mmHg 62%
    14:00 +20°C° 0.2 mm 4 mps 747 mmHg 64%
    15:00 +19°C° 0.2 mm 4 mps 747 mmHg 66%
    16:00 +19°C° 0.2 mm 3 mps 747 mmHg 68%
    17:00 +18°C° 0 mm 3 mps 747 mmHg 73%
    18:00 +17°C° 0 mm 2 mps 747 mmHg 77%
    19:00 +16°C° 0 mm 2 mps 748 mmHg 82%
    20:00 +16°C° 0.1 mm 2 mps 748 mmHg 84%
    21:00 +15°C° 0.1 mm 2 mps 748 mmHg 85%
    22:00 +14°C° 0.1 mm 3 mps 748 mmHg 86%
    23:00 +14°C° 0.1 mm 4 mps 748 mmHg 87%

    26 September, Thursday

    Time Temperature Precipitation Wind Pressure Humidity
    00:00 +14°C° 0.1 mm 4 mps 748 mmHg 88%
    01:00 +14°C° 0.1 mm 5 mps 748 mmHg 89%
    02:00 +13°C° 0.1 mm 5 mps 748 mmHg 89%
    03:00 +13°C° 0.1 mm 5 mps 749 mmHg 90%
    04:00 +13°C° 0.1 mm 5 mps 749 mmHg 90%
    05:00 +13°C° 0.3 mm 5 mps 749 mmHg 90%
    06:00 +13°C° 0.3 mm 5 mps 749 mmHg 89%
    07:00 +13°C° 0.3 mm 5 mps 749 mmHg 89%
    08:00 +13°C° 0.1 mm 5 mps 750 mmHg 86%
    09:00 +14°C° 0.1 mm 5 mps 750 mmHg 83%
    10:00 +14°C° 0.1 mm 5 mps 750 mmHg 81%
    11:00 +15°C° 0.1 mm 5 mps 750 mmHg 76%
    12:00 +16°C° 0.1 mm 5 mps 750 mmHg 71%
    13:00 +17°C° 0.1 mm 5 mps 750 mmHg 66%
    14:00 +17°C° 0.1 mm 5 mps 750 mmHg 65%
    15:00 +18°C° 0.1 mm 4 mps 751 mmHg 64%
    16:00 +18°C° 0.1 mm 4 mps 751 mmHg 63%
    17:00 +17°C° 0.1 mm 4 mps 751 mmHg 71%
    18:00 +15°C° 0.1 mm 4 mps 751 mmHg 79%
    19:00 +13°C° 0.1 mm 4 mps 752 mmHg 86%
    20:00 +13°C° 0 mm 4 mps 752 mmHg 89%
    21:00 +12°C° 0 mm 3 mps 752 mmHg 92%
    22:00 +12°C° 0 mm 3 mps 753 mmHg 95%
    23:00 +13°C° 0 mm 2 mps 753 mmHg 95%

    27 September, Friday

    Time Temperature Precipitation Wind Pressure Humidity
    00:00 +13°C° 0 mm 2 mps 753 mmHg 94%
    01:00 +13°C° 0 mm 1 mps 753 mmHg 94%
    02:00 +13°C° 0 mm 1 mps 753 mmHg 94%
    03:00 +13°C° 0 mm 1 mps 753 mmHg 94%
    04:00 +13°C° 0 mm 1 mps 753 mmHg 94%
    05:00 +13°C° 0.3 mm 1 mps 753 mmHg 94%
    06:00 +13°C° 0.3 mm 1 mps 753 mmHg 94%
    07:00 +13°C° 0.3 mm 1 mps 753 mmHg 95%
    08:00 +13°C° 0.5 mm 1 mps 753 mmHg 94%
    09:00 +13°C° 0.5 mm 1 mps 754 mmHg 94%
    10:00 +13°C° 0.5 mm 2 mps 754 mmHg 94%
    11:00 +14°C° 0.1 mm 2 mps 754 mmHg 92%
    12:00 +14°C° 0.1 mm 2 mps 754 mmHg 90%
    13:00 +15°C° 0.1 mm 2 mps 753 mmHg 88%
    14:00 +15°C° 0 mm 2 mps 753 mmHg 86%
    15:00 +15°C° 0 mm 2 mps 753 mmHg 85%
    16:00 +16°C° 0 mm 2 mps 753 mmHg 83%
    17:00 +14°C° 0 mm 3 mps 753 mmHg 86%
    18:00 +13°C° 0 mm 3 mps 754 mmHg 89%
    19:00 +13°C° 0 mm 3 mps 754 mmHg 92%
    20:00 +12°C° 0 mm 3 mps 754 mmHg 93%
    21:00 +12°C° 0 mm 4 mps 754 mmHg 94%
    22:00 +12°C° 0 mm 4 mps 753 mmHg 95%
    23:00 +12°C° 0 mm 4 mps 753 mmHg 95%
    Show more